Terminal Aerodrome Forecast
Issued by NWS

Home | Current Version | Previous Version | Text Only | Print | Product List | Glossary On
Versions: 1 2 3 4 5 6 7 8 9 10 11 12 13 14 15 16 17 18
000
FTUS41 KBOX 232013 AAA
TAFFMH
TAF AMD
KFMH 232013Z 2320/2418 32012G22KT P6SM BKN015 OVC050
     FM232200 32015G28KT P6SM BKN050
     FM240700 31018G32KT P6SM BKN250=

USA.gov is the U.S. government's official web portal to all federal, state and local government web resources and services.